Погода в Хабаровске

Погода в Хабаровске : погода сейчас, прогноз погоды и архив. Всё, что Вы хотите узнать о погоде в Хабаровске!

Хотите узнать прогноз погоды в Хабаровске? Тогда Вам сюда: Погода в Хабаровске

Поиск расширенной информации на нашем сайте:

Другие новости

Новости СМИ2

Главная страница сайта

Новости сайта

02.10.2013

Напоминаем, что на нашем новом сайте вы можете получить высокодетализированные прогнозы погоды по пунктам России, СНГ и мира (включающие важные для авиации метеовеличины, такие как направление и скорость ветра, видимость, явления погоды, количество и форма облачности, нижняя и верхняя граница облачности), а также ознакомиться с разнообразными материалами по авиационной метеорологии и подборкой полезных ссылок на эту тему.

Сайт Метеоцентр.Азия посвящён разработке технологий оптимизации авиаметеорологического обслуживания, включая проектирование и перспективное создание нескольких автоматизированных авиаметеорологических систем:
- система выпуска высокодетальных прогностических карт явлений погоды для нижнего воздушного пространства по России и ближнему зарубежью;
- система верификации прогнозов TAF (выпускаемых синоптиками официальных АМСГ РФ и ближнего зарубежья) и AUTOTAF (выпускаемых сайтом Метеоцентр.Азия) - выявление ошибок, онлайн-сопоставление с фактической погодой METAR, автоматическое внесение коррективов в прогнозы при резком отклонении фактической погоды от прогноза, подсчёт оправдываемости прогнозов по элементам и в целом;
- система обработки, анализа и отображения авиаметеорологической информации для применения провайдерами метеорологической информации.


Погода в Хабаровске - сегодня

Время (UTC), дата Ветер
(°,м/с) 
Видим.   Явления Облачность Т
(°С)
Тd
(°С)
f(%) Тe
(°С)
Pmin
(гПа)
dP
(гПа)
Po
(мм)
O2
(г/м3)
Тmin Tmax R s Состояние
почвы
21 23.06.17 060 (СВ) 8{11}  10 км    6/0 средняя, верхняя 
[Ac trans|Ci fib]
+11.7 +7.4 75 +10  1006.6  0.9  749  288  +11.6       
00 24.06.17 050 (СВ) 10-14{16}  10 км    6/0 средняя, верхняя 
[Ac trans|Ci fib]
+15 +7.3 60 +14  1006.9  0.6  749  285           
03 24.06.17 050 (СВ) 9-12{14}  10 км    6/0 средняя 
[Ac trans]
+17.3 +8.1 55 +17  1006.8  749  282           
06 24.06.17 060 (СВ) 8-12{16}  10 км    5/0 средняя 
[Ac trans]
+17.6 +7.8 53 +17  1006.6  -0.2  749  282           
09 24.06.17 060 (СВ) 8-11{14}  10 км    3/1 1000 м средняя 
[Sc|Ac trans]
+15.9 +7.6 58 +15  1006.9  749  284    +18.2       
12 24.06.17 060 (СВ) 6{14}  10 км    1/0 средняя 
[Ac trans]
+11.4 +6.4 71 +10  1009.2  2.4  751  289           
15 24.06.17 030 (СВ) 10 км    ясно 
+10.1 +6.8 80 +8  1009.4  751  291           
18 24.06.17 030 (СВ) 7{11}  10 км    ясно 
+8.8 +6.4 85 +7  1009.1  -0.2  751  292           
21 24.06.17 050 (СВ) 10 км    4/4 300 м 
[St]
+10.5 +7.7 83 +9  1010.1  1.1  751  290  +8.2         
00 25.06.17 060 (СВ) 6{11}  10 км    5/5 660 м 
[Sc]
+15.2 +8.5 64 +15  1010  -0.2  751  285           
03 25.06.17 050 (СВ) 10 км    4/4 1000 м 
[Sc]
+18.8 +8.7 52 +19  1008.5  -1.3  750  281           
06 25.06.17 050 (СВ) 10 км    5/5 1320 м 
[Sc]
+20 +8.2 46 +20  1007.3  -1  750  280           
09 25.06.17 020 (С) 10 км    3/3 1000 м 
[Sc]
+19.8 +9.1 50 +21  1007.1  -0.4  749  280    +20.8       
12 25.06.17 тихо ()   10 км    ясно 
+14.5 +10.6 77 +16  1007  -0.1  749  285           
15 25.06.17 тихо ()   10 км    ясно 
+11.8 +9.6 86 +12  1007.2  0.1  749  288           
18 25.06.17 280 (З) 10 км    ясно 
+11.4 +10.7 95 +15  1006.7  -0.5  749  288           
21 25.06.17 200 (Ю) 10 км    5/0 верхняя 
[Ci fib]
+13.9 +12.6 92 +20  1006.6  -0.1  749  285  +10.3         
00 26.06.17 220 (ЮЗ) 10 км    9/3 1000 м средняя, верхняя 
[Sc|Ac trans|Ci fib]
+18.1 +12 68 +23  1006.5  -0.3  749  281           
03 26.06.17 тихо ()   10 км  слаб. ливневой дождь  10/4 1000 м кучево-дожд., средняя 
[Cb cap|Ac und]
+17 +14.4 85 +25  1006.2  -0.3  749  281           
06 26.06.17 260 (З) 10 км  в посл. час ливневой дождь  10/6 600 м кучево-дожд., средняя 
[Cb cap|Ac As]
+17.4 +14.6 84 +25  1006.2  749  280           
09 26.06.17 250 (З) 10 км    10/4 600 м кучево-дожд., средняя 
[Cb cap|Ac und]
+16.6 +12.3 76 +21  1006.8  0.6  749  282    +18.8     
12 26.06.17 040 (СВ) 10 км    10/4 600 м кучево-дожд., средняя 
[Cb cap|Ac As]
+15.1 +13 87 +21  1007.5  0.7  749  284           
15 26.06.17 тихо ()   10 км    10/4 1000 м кучево-дожд., средняя 
[Cb cap|Ac und]
+14.9 +14.3 96 +22  1008.2  0.6  750  284           
18 26.06.17 040 (СВ) 1800 м  туман  ?/?  
+14.5 +14.3 99 +22  1008.7  0.5  750  284           
21 26.06.17 050 (СВ) 4100 м  дымка{туман}  10/10 60 м 
[St]
+14.7 +14.6 99 +23  1009.6  0.9  751  284  +14.1         
Время (UTC), дата Ветер
(°,м/с) 
Видим.   Явления Облачность Т
(°С)
Тd
(°С)
f(%) Тe
(°С)
Pmin
(гПа)
dP
(гПа)
Po
(мм)
O2
(г/м3)
Тmin Tmax R s Состояние
почвы

Для получения пояснительной информации подведите курсор к названию столбца.

ПОГОДА в Хабаровске - архив

Всё, что Вы хотите узнать о погоде в Хабаровске - удобно и подробно!

Выберите нужную дату (начиная с 1 января 2015* года) и нажмите кнопку "Найти".
Будут отображены архивные сводки погоды по пункту Хабаровск, начиная с указанной даты.


Отображать данные в формате CSV (для использования в таблицах Excel)


Внимание! Наш архив погоды предназначен исключительно для личного некоммерческого использования в познавательных целях. Если Вам необходимы официальные справки о состоянии погоды (для производственных, юридических, коммерческих и т.п. целей), обращайтесь в органы Росгидромета.

*Примечание: данная дата относится к архиву по метеостанциям СССР (Россия, СНГ, Балтия).
Архив по метеостанциям Зарубежной Европы и Азии (кроме Китая) хранится 10 дней, по другим регионам земного шара (Китай, Африка, Америка, Австралия, Океания) - 1 день.

Хабаровск - район местоположения метеостанции


Название, широта, долгота, высота метеостанции:
Хабаровск 48.5°ш. 135.2°д. 76 м над ур. моря [Российская Федерация]

Дополнительная информация

В oтличие oт бoльшинства пoгoдных сайтoв мы публикуем пoдрoбную метеoинфoрмацию в детальнoм прoфессиoнальнoм фoрмате.

Характеристики температуры и влажнoсти вoздуха измеряются на высoте 2 м в тени вдали oт зданий и деревьев.
Скoрoсть ветра измеряется на высoте 10 м (на урoвне рoста челoвека скoрoсть ветра ниже в 1.5-2 раза). Если метеoстанция нахoдится в гoрoде или в лесу, тo скoрoсть ветра занижена на 2-4 м/с пo сравнению с oткрытым местoм. Скoрoсть ветра над акватoриями крупных рек и oзёр, а также на вершинах хoлмoв на 2-5 м/с выше, чем в oбычных услoвиях.
Атмoсфернoе давление в разных тoчках местнoсти мoжет значительнo oтличаться oт давления на метеoстанции, в зависимoсти oт услoвий рельефа (при пoдъёме на 10 м давление пoнижается примернo на 1 мм рт.ст.).